カタログに戻る

COSMOS 1375 DEB

運用中LEO
NORAD 17106·DEBRIS·🇷🇺 Russia

打ち上げ Jun 6, 1982 から Plesetsk Cosmodrome

Loading…

次のパス (今後24時間)

TLE

最新Source: Space-Track

元期: Sep 14, 2026, 05:45 UTC

1 17106U 82055AH  26257.23959785  .00000174  00000-0  22148-3 0  9997
2 17106  65.8276 109.8162 0012810 126.0244 349.4315 13.86365978232641

AllMySatでCOSMOS 1375 DEBをリアルタイム追跡

Download on the App Store